This is the latest recevied weather packets stored in our database for station/object IZ8XTV-13. If no packets are shown the sender has not sent any weather packets the latest 10 day(s).
| Time | Temp. | Humidity | Pressure | Rain* | Wind** | Luminosity | Snow |
|---|---|---|---|---|---|---|---|
| 1778189985 | 18.33° C | 99% | 1012.1 hPa | 0 mm | - | - | - |
| 1778189373 | 18.33° C | 99% | 1012.1 hPa | 0 mm | - | - | - |
| 1778188761 | 18.33° C | 99% | 1012.2 hPa | 0 mm | - | - | - |
| 1778188149 | 18.33° C | 99% | 1012.4 hPa | 0 mm | - | - | - |
| 1778187537 | 18.89° C | 99% | 1012.5 hPa | 0 mm | - | - | - |
| 1778186925 | 18.33° C | 99% | 1012.5 hPa | 0 mm | - | - | - |
| 1778186313 | 18.89° C | 99% | 1012.6 hPa | 0 mm | - | - | - |
| 1778185701 | 18.89° C | 99% | 1012.5 hPa | 0 mm | - | - | - |
| 1778185088 | 19.44° C | 99% | 1012.6 hPa | 0 mm | - | - | - |
| 1778184476 | 19.44° C | 99% | 1012.4 hPa | 0 mm | - | - | - |
| 1778183865 | 19.44° C | 99% | 1012.3 hPa | 0 mm | - | - | - |
| 1778183252 | 19.44° C | 99% | 1012.2 hPa | 0 mm | - | - | - |
| 1778182640 | 20° C | 99% | 1012.4 hPa | 0 mm | - | - | - |
| 1778182028 | 20° C | 99% | 1012.6 hPa | 0 mm | - | - | - |
| 1778181417 | 20° C | 99% | 1012.7 hPa | 0 mm | - | - | - |
| 1778180805 | 20° C | 99% | 1012.5 hPa | 0 mm | - | - | - |
| 1778180194 | 20.56° C | 99% | 1012.4 hPa | 0 mm | - | - | - |
| 1778179582 | 20.56° C | 99% | 1012.2 hPa | 0 mm | - | - | - |
| 1778178970 | 20.56° C | 99% | 1012 hPa | 0 mm | - | - | - |
| 1778178359 | 20.56° C | 99% | 1011.9 hPa | 0 mm | - | - | - |
| 1778177747 | 21.11° C | 99% | 1011.8 hPa | 0 mm | - | - | - |
| 1778177136 | 21.11° C | 99% | 1011.8 hPa | 0 mm | - | - | - |
| 1778176524 | 21.67° C | 99% | 1011.9 hPa | 0 mm | - | - | - |
| 1778175913 | 21.67° C | 99% | 1011.8 hPa | 0 mm | - | - | - |
| 1778175301 | 22.22° C | 99% | 1011.7 hPa | 0 mm | - | - | - |
* Rain latest hour (hover to see other rain measurements)
** Current wind speed in m/s (hover to see current wind gust speed)